Regional Weather Roundup
Issued by NWS

Home | Current Version | Previous Version | Text Only | Print | Product List | Glossary Off
Versions: 1 2 3 4 5 6 7 8 9 10 11 12 13 14 15 16 17 18 19 20 21 22 23 24 25 26 27 28 29 30 31 32 33 34 35 36 37 38 39 40 41 42 43 44 45 46 47 48 49 50

653
ASUS44 KMEG 060310
RWRTN
TENNESSEE HOURLY STATE WEATHER ROUNDUP
NATIONAL WEATHER SERVICE MEMPHIS TN
900 PM CST MON DEC 05 2016

TNZ002-004-019-021-049-052-054-088>092-060400-
WEST TENNESSEE

CITY           SKY/WX    TMP DP  RH WIND       PRES   REMARKS
MEMPHIS INTL   CLOUDY    47  46  97 E6        29.73F
NWS MEMPHIS      N/A     46 N/A N/A MISG        N/A
JACKSON        CLOUDY    46  45  96 NE6       29.76F
DYERSBURG      CLOUDY   N/A N/A N/A E9        29.75F
UNION CITY     CLOUDY    43  39  87 E5        29.79F
PARIS          CLOUDY    41  39  93 E7        29.80F
HUNTINGDON     CLOUDY    45  43  93 NE6       29.78F
LEXINGTON      CLOUDY    45  45 100 E12       29.73F
$$

TNZ008-025-027-028-033-062-065-066-060400-
NORTH MIDDLE TENNESSEE

CITY           SKY/WX    TMP DP  RH WIND       PRES   REMARKS
NASHVILLE      CLOUDY    48  45  89 NE3       29.82S
PORTLAND       CLOUDY    45  43  93 VRB3      29.82F
CLARKSVILLE    CLOUDY    44  39  82 E7        29.82F
SMYRNA         CLOUDY    48  46  93 CALM      29.81F
CROSSVILLE     CLOUDY    47  46  97 E6        29.84F
$$

TNZ061-075-076-078-094-096-097-060400-
SOUTH MIDDLE TENNESSEE

CITY           SKY/WX    TMP DP  RH WIND       PRES   REMARKS
FAYETTEVILLE   CLOUDY    52  52 100 E6        29.78F
TULLAHOMA      CLOUDY    48  48 100 E6        29.78F
WINCHESTER     MOCLDY    52  48  87 E13       29.77F
MCMINNVILLE    CLOUDY    50  50 100 CALM      29.81F
COLUMBIA       CLOUDY   N/A N/A N/A SE7       29.78S
SHELBYVILLE    CLOUDY    52  52 100 NE5       29.79F
$$

TNZ017-018-042-046-047-060400-
NORTHEAST TENNESSEE

CITY           SKY/WX    TMP DP  RH WIND       PRES   REMARKS
TRI CITIES     LGT RAIN  47  45  93 NE3       29.94F
ELIZABETHTON   LGT RAIN  54  48  82 NE8G15    29.95R
$$

TNZ012-013-036-069-073-074-060400-
CENTRAL EAST TENNESSEE

CITY           SKY/WX    TMP DP  RH WIND       PRES   REMARKS
KNOXVILLE      LGT RAIN  49  46  90 N12       29.84F
OAK RIDGE      CLOUDY    51  45  79 CALM      29.87F
DOWNTOWN KNOXV CLOUDY    50  48  93 VRB6      29.87F
GATLINBURG     PTCLDY    46  46 100 NE6       29.85F
MORRISTOWN     CLOUDY    48  46  93 E8        29.87F
JACKSBORO      CLOUDY    48  48 100 CALM      29.90F
$$

TNZ083-085-099-060400-
SOUTHEAST TENNESSEE

CITY           SKY/WX    TMP DP  RH WIND       PRES   REMARKS
CHATTANOOGA    LGT RAIN  51  48  89 N3        29.85S FOG
$$

SKY/WX REPORTED AS FAIR MEANS FEW OR NO CLOUDS BELOW
12 THOUSAND FEET.





USA.gov is the U.S. government's official web portal to all federal, state and local government web resources and services.